Wind_Speed
35 34 33 31 30 30 29 30 30 30 29 29 29 29 28 27 27 27 28 27 27 26 26 26 24 22 22 22 22 22 18 15 15 15 15 15 15 13 12 12 13 14 13 11 11 11 11 12 12 12 12 12 12 12 13 12 12 12 12 13 14 14 14 14 14 15 17 18 19 20 20 19 19 18 18 19 21 22 22 22 22 23 24 24 25 25
34 33 32 32 31 31 30 30 30 30 29 28 28 28 28 28 27 28 28 28 27 27 27 27 25 22 22 23 23 23 19 16 17 16 16 16 15 13 13 14 15 15 14 13 13 12 12 13 13 13 13 13 13 13 13 13 13 12 12 13 14 14 14 14 14 15 16 18 19 19 20 20 19 19 19 19 20 22 23 23 24 25 25 26 26 27
34 33 32 32 31 31 30 30 30 29 28 28 28 28 28 28 28 27 28 28 28 28 28 28 26 22 22 24 23 23 20 18 18 16 16 17 16 15 15 16 16 16 16 15 14 14 13 14 15 15 14 13 14 14 14 14 13 13 13 13 14 14 15 15 15 16 16 17 18 19 20 20 20 20 19 19 20 22 22 23 25 26 26 27 28 29
34 33 33 32 31 30 30 30 30 29 29 28 28 28 29 28 28 28 28 28 28 29 29 29 27 22 22 24 23 24 22 19 18 17 17 18 17 17 17 17 18 17 17 16 15 15 15 15 16 16 15 14 15 15 15 15 15 14 14 14 15 15 15 15 16 16 17 17 18 19 19 20 20 20 20 20 21 22 22 23 24 25 27 28 28 30
35 34 33 32 31 31 30 30 29 29 29 28 28 29 29 29 29 29 29 28 29 30 30 29 28 23 22 24 24 24 23 21 20 18 18 20 20 19 19 19 20 19 18 17 16 16 16 17 17 17 16 16 16 16 16 16 16 16 16 16 16 16 16 16 17 17 18 18 19 19 20 20 20 21 21 21 22 23 23 24 24 26 27 28 29 30
35 35 34 32 31 30 30 29 29 29 29 29 29 30 30 30 30 30 29 29 30 31 29 29 29 24 22 24 24 24 24 22 21 20 20 21 21 21 21 22 22 20 19 18 18 18 18 18 18 18 18 18 18 18 18 18 18 18 18 18 18 18 18 18 18 19 19 20 20 20 21 21 22 22 23 23 23 24 24 25 26 27 28 29 30 31
35 35 34 33 32 30 30 29 28 28 28 29 30 30 30 30 30 30 30 30 31 31 29 30 30 25 22 23 24 24 24 24 23 21 21 22 23 23 24 24 24 22 21 21 20 20 20 20 20 20 20 19 19 20 20 20 20 20 20 20 20 20 20 20 20 20 21 21 22 22 22 23 24 24 24 25 26 26 27 27 28 29 30 31 32 33
34 34 34 33 32 31 29 28 27 27 28 29 29 29 30 30 31 31 31 31 31 31 31 30 30 28 23 22 23 25 25 25 24 23 23 24 24 24 25 26 26 24 24 23 22 22 22 22 22 22 22 21 22 22 22 22 23 23 23 23 22 22 22 22 22 22 22 23 23 24 24 25 25 26 26 27 28 28 28 29 30 31 32 33 34 35
33 33 33 33 32 31 30 29 28 28 28 28 28 29 30 31 31 32 32 32 32 32 31 29 29 30 25 21 22 25 25 24 25 25 25 26 26 26 27 28 28 27 26 26 25 24 24 24 24 24 24 24 24 24 24 24 25 26 26 26 25 24 24 24 25 25 25 25 25 26 26 27 28 28 28 29 29 30 30 30 31 31 32 33 35 36
34 34 34 34 33 32 31 31 30 30 30 29 28 29 30 31 31 32 33 32 33 33 31 29 29 32 29 22 22 24 23 23 25 26 27 27 28 28 29 30 30 30 29 28 28 27 27 27 26 26 26 26 26 26 27 27 27 28 29 29 28 27 26 26 27 27 27 28 28 28 29 29 30 30 31 31 31 32 32 33 33 33 34 35 36 37
35 35 35 35 34 33 32 32 32 31 31 30 29 29 29 30 30 32 33 33 34 34 31 30 29 33 32 22 20 23 23 23 25 27 28 28 29 30 31 32 32 32 32 31 30 29 29 29 29 29 29 29 28 28 29 29 30 31 31 32 31 30 29 28 29 29 30 30 31 31 31 32 33 33 33 34 34 34 34 35 36 36 37 38 39 40
37 36 36 35 34 33 32 32 32 32 31 30 30 29 30 30 30 32 33 33 35 34 33 32 31 34 33 23 19 23 23 24 26 27 29 30 30 31 32 33 34 34 34 33 32 32 32 32 32 32 32 31 31 31 31 31 32 33 34 34 35 34 32 31 32 32 33 33 33 34 34 35 36 36 36 37 37 37 37 38 38 39 40 41 42 43
39 38 37 36 35 34 33 33 33 33 33 32 31 31 31 31 31 32 32 33 35 35 35 34 33 34 33 26 23 24 24 25 26 27 30 31 32 32 33 35 35 35 35 35 35 35 35 35 35 35 35 35 35 34 34 34 35 35 36 37 37 37 36 35 35 35 35 35 36 36 37 38 38 39 39 40 40 40 40 40 41 41 42 43 44 45
41 40 39 38 38 36 35 35 35 34 34 34 33 33 32 32 33 32 32 33 33 34 35 36 36 35 32 30 30 28 25 26 27 27 29 31 33 35 36 36 36 36 37 37 37 37 38 38 38 38 38 38 38 37 37 37 37 38 38 39 39 40 40 39 39 39 38 38 38 39 39 40 40 41 42 42 43 43 43 43 44 44 45 46 46 47
45 44 42 40 40 39 38 37 37 36 36 36 36 35 35 34 34 34 34 34 33 34 36 36 36 35 32 33 34 33 29 27 28 29 30 31 33 36 37 37 38 38 39 39 40 40 41 41 41 40 40 40 40 40 40 40 40 40 40 41 41 42 42 43 44 43 42 41 41 41 42 42 43 44 44 45 45 46 46 46 46 47 47 48 48 49
48 46 45 44 43 42 41 41 40 40 40 40 39 38 37 36 37 37 37 36 35 37 37 37 36 34 33 35 37 36 34 31 31 33 33 33 34 35 37 38 38 39 39 40 41 42 43 43 43 43 42 42 43 43 43 43 43 42 42 42 43 44 44 45 47 46 46 44 44 44 45 46 46 46 47 47 48 48 49 48 48 49 49 49 50 51
50 48 47 46 45 45 44 44 43 43 43 42 41 39 39 39 40 40 40 39 39 40 39 38 37 35 34 35 37 37 36 34 35 36 37 37 37 38 38 38 39 39 40 41 42 43 44 44 44 44 44 44 45 45 45 45 45 45 44 45 45 46 47 48 48 48 48 48 47 48 48 49 49 49 50 50 50 51 51 51 50 50 50 51 53 53
51 50 50 49 48 47 46 46 46 45 44 44 43 41 41 43 43 43 43 43 43 43 41 39 39 38 37 37 37 38 38 36 37 38 38 38 40 41 41 41 41 42 42 43 43 44 45 45 46 46 46 46 47 47 48 48 47 47 46 46 47 48 48 49 49 49 50 51 51 51 51 51 52 52 53 53 53 53 53 52 52 51 52 53 55 55
54 53 53 53 51 50 50 49 49 48 47 47 46 45 46 47 47 45 45 45 45 45 44 42 41 41 39 39 38 38 38 39 40 40 39 40 40 41 43 44 44 45 45 45 46 47 47 48 48 48 48 49 49 49 49 49 49 48 48 48 48 49 50 50 51 52 53 54 54 54 54 55 56 56 56 56 56 56 55 54 54 53 54 55 56 57
55 54 55 55 53 53 53 53 52 51 50 49 49 49 49 49 49 48 48 47 47 48 47 46 45 43 41 40 41 41 40 40 42 42 42 42 42 42 43 45 45 46 47 48 48 49 50 50 50 50 51 51 52 51 51 51 51 51 51 51 52 52 53 53 54 55 56 56 57 57 58 58 59 59 59 59 58 58 57 57 56 55 55 55 56 57
55 55 55 55 55 55 55 54 53 52 51 50 50 50 50 50 51 51 50 50 49 50 50 50 49 46 42 42 43 43 42 42 44 45 45 45 46 45 44 45 45 46 47 49 50 51 51 52 52 53 54 54 54 54 54 54 55 55 56 56 56 56 56 57 57 58 58 59 60 61 61 61 61 61 61 61 60 60 59 59 58 56 55 55 55 56
57 58 58 57 58 57 55 54 53 52 52 52 52 52 52 52 53 53 54 53 52 52 52 53 53 49 45 43 44 45 46 46 46 47 48 48 48 48 47 47 47 46 47 48 50 51 52 52 53 53 54 55 56 56 56 57 57 58 59 59 59 59 59 60 60 60 61 62 63 63 63 63 63 62 62 62 62 61 60 60 58 57 55 54 55 57
55 57 58 58 58 58 57 56 56 55 55 55 55 55 55 56 57 57 58 56 55 55 54 55 55 53 48 45 44 46 47 48 48 50 52 51 50 50 50 50 49 49 49 50 50 51 52 53 54 54 54 55 56 57 57 58 59 59 60 60 60 60 61 61 62 62 62 63 63 63 64 64 63 63 63 63 63 62 61 59 58 57 55 55 56 58
55 57 59 59 59 58 59 59 58 59 59 59 59 59 58 59 59 59 59 58 58 58 56 57 57 55 50 47 46 47 48 49 50 51 52 52 52 52 53 53 53 52 52 52 52 53 54 55 55 55 55 56 56 57 58 58 59 59 59 60 60 60 61 61 62 62 62 62 62 63 63 64 64 63 62 62 62 62 61 60 59 58 56 57 58 60
57 58 60 61 61 61 62 62 62 63 63 62 62 60 60 59 59 60 59 60 61 59 58 60 59 54 52 50 48 48 49 51 52 52 52 53 53 54 55 55 54 53 53 53 55 56 57 57 57 56 57 57 58 58 58 59 59 59 59 59 60 60 61 62 62 62 62 61 61 62 62 62 62 61 60 60 60 61 62 62 61 60 59 60 61 61
55 57 58 60 62 64 65 65 63 62 61 61 61 60 59 59 59 59 58 60 62 60 59 63 61 54 52 53 52 52 52 53 53 54 54 54 55 56 56 55 55 54 55 57 59 60 60 60 60 60 60 60 60 60 59 59 59 59 59 59 59 59 60 60 61 61 60 60 60 60 61 61 61 61 61 61 62 63 64 64 63 63 63 62 59 57
54 56 57 59 61 62 62 60 58 57 57 59 60 59 59 59 58 58 59 61 62 61 62 64 62 58 56 55 56 56 55 54 55 56 56 55 55 56 55 55 56 58 60 63 64 64 63 62 62 63 62 62 61 59 59 58 57 57 57 56 57 57 57 58 59 59 59 60 60 61 61 62 63 63 63 64 64 65 65 65 64 63 61 58 55 53
54 55 57 58 59 60 60 60 60 60 60 60 60 60 59 59 59 60 62 63 62 63 65 64 61 61 59 56 56 57 56 56 56 57 57 57 55 54 54 56 59 61 63 65 66 66 65 65 64 64 64 62 61 59 58 57 56 55 54 54 55 56 57 58 59 60 61 61 61 62 62 63 63 64 64 64 64 64 63 62 61 60 58 56 55 53
54 55 55 56 57 58 59 60 61 61 61 60 60 60 60 60 60 62 63 62 61 63 66 62 60 63 62 58 57 57 55 55 55 56 57 57 56 56 57 60 61 63 64 65 66 67 66 65 64 63 63 63 62 62 61 60 59 58 57 57 57 57 58 59 60 60 60 60 60 60 60 60 61 61 61 61 60 60 59 59 59 58 58 57 55 52
55 55 55 55 56 56 56 58 58 59 60 60 60 60 60 60 61 62 62 61 62 64 65 62 63 64 61 58 57 55 53 53 54 55 56 57 59 61 62 63 62 63 64 65 65 65 65 64 64 64 64 65 65 65 65 65 64 63 62 61 60 59 59 58 57 56 56 56 56 56 57 57 57 57 57 57 57 58 58 58 59 59 58 56 53 50
57 57 57 57 57 57 56 56 57 58 60 61 61 61 61 61 61 62 63 63 63 64 62 61 62 62 57 55 54 52 53 54 54 56 58 60 62 64 65 66 64 63 64 64 64 64 64 64 65 65 66 66 66 67 67 66 66 65 64 62 61 60 59 58 56 54 54 53 54 54 55 56 56 56 57 58 58 59 59 59 59 58 56 54 51 49
57 58 59 58 59 60 58 57 59 60 61 63 64 63 62 62 62 62 62 62 62 62 60 60 61 58 53 53 53 53 55 56 56 58 61 63 64 64 65 67 66 65 65 65 65 65 65 65 65 66 66 66 65 66 66 66 65 64 63 63 61 60 59 58 56 55 54 54 55 55 56 56 57 57 58 59 60 60 60 60 58 55 53 52 51 50
56 57 57 58 60 60 58 58 59 59 61 65 65 64 63 64 64 64 64 63 62 62 62 62 61 57 55 56 57 55 55 57 58 60 62 63 64 64 65 65 66 65 66 66 65 65 65 65 64 64 63 63 63 63 63 63 63 63 63 62 61 60 60 59 58 57 56 56 57 57 57 57 57 57 58 59 60 60 60 59 57 54 53 52 52 52
52 53 54 56 58 58 57 58 57 58 62 64 63 62 63 64 64 64 65 64 62 62 63 63 62 59 58 58 57 56 56 57 59 61 62 63 64 64 64 65 66 67 67 66 65 64 64 63 63 62 62 62 63 63 63 63 63 62 62 62 61 60 60 60 59 59 58 58 59 59 58 58 57 57 58 59 59 60 59 58 56 54 54 53 53 54
53 52 53 55 57 58 58 59 60 62 63 60 57 57 59 61 62 63 65 64 62 62 62 62 62 60 58 57 57 58 59 58 59 60 60 61 62 62 63 64 64 65 66 66 65 63 62 62 62 63 63 63 63 63 62 62 62 62 62 61 61 61 60 60 60 59 60 60 60 60 59 58 57 57 58 59 59 60 59 58 57 56 55 55 55 55
59 58 57 57 58 59 61 63 65 66 64 59 56 55 56 58 60 63 64 63 61 60 59 59 59 58 58 58 59 59 59 58 59 59 59 60 61 61 62 62 62 63 64 65 65 65 65 64 64 64 64 64 64 64 63 62 61 61 61 61 61 61 60 60 59 59 60 61 61 62 61 60 59 59 60 61 61 61 62 62 61 61 60 60 60 60
65 65 64 63 64 64 65 67 67 67 66 63 60 59 58 59 60 62 63 62 60 60 60 59 58 57 58 59 59 58 58 56 56 56 57 58 59 60 61 61 62 63 63 64 65 66 67 67 66 66 66 66 66 66 65 62 61 60 61 61 61 61 61 62 62 62 62 63 63 64 64 64 64 64 64 65 65 66 67 67 67 68 68 68 68 69
67 67 67 66 66 66 67 68 69 71 69 64 62 61 61 61 63 65 66 65 62 61 61 61 60 60 59 60 60 60 60 59 57 57 57 57 58 59 60 61 62 63 64 65 65 66 67 68 67 67 67 66 67 67 66 65 64 64 64 65 66 67 67 68 69 70 70 70 70 70 71 71 71 71 71 71 71 71 72 73 74 75 76 76 76 76
68 68 66 64 62 62 64 66 68 72 69 63 61 63 63 65 68 68 69 68 64 63 63 64 64 64 63 63 63 62 63 62 61 61 61 60 61 62 62 62 63 63 64 65 66 66 67 67 67 68 68 69 70 70 71 71 71 71 72 72 73 74 75 76 76 77 77 78 78 78 79 79 79 79 79 78 77 77 77 77 78 79 81 81 82 82
67 67 67 67 66 65 65 65 67 71 69 65 64 64 65 67 68 67 69 70 65 64 66 67 67 67 67 67 67 67 67 67 66 66 67 66 66 67 67 67 67 67 67 68 68 69 70 70 71 72 74 75 76 77 77 78 78 78 78 78 78 79 79 80 80 81 81 82 82 83 83 83 84 84 84 84 84 83 83 82 83 83 84 85 86 85
64 64 65 66 66 66 67 67 69 71 69 66 66 66 67 69 69 68 69 69 65 65 68 69 70 70 69 70 70 70 71 72 71 71 71 71 71 72 72 72 72 72 72 72 73 73 73 74 75 76 78 79 80 80 81 81 81 81 81 81 81 82 82 82 83 83 84 84 84 85 85 86 86 86 86 86 86 86 86 85 85 85 85 86 86 86
62 63 63 63 63 63 63 64 66 68 68 66 66 67 70 71 70 69 69 67 65 66 68 69 70 70 71 71 72 71 71 72 72 72 73 73 74 74 75 74 74 74 74 74 75 76 76 77 77 77 78 79 81 82 83 83 83 83 83 83 83 83 84 84 84 84 85 85 86 86 86 86 86 86 85 85 84 84 83 82 82 81 81 80 80 79
58 59 60 60 60 60 60 61 63 65 64 62 61 62 65 67 67 66 65 64 64 65 66 68 69 69 69 70 70 71 71 71 71 71 71 71 72 73 74 74 74 74 74 74 74 75 76 78 79 79 78 78 79 81 82 84 84 83 83 82 82 83 83 82 82 82 82 82 82 82 82 81 81 81 80 79 78 78 77 76 75 75 74 73 73 72
56 57 58 58 57 57 58 58 58 57 56 55 56 58 61 63 63 62 62 61 62 62 63 64 65 65 65 65 65 66 67 68 68 69 69 69 70 71 72 73 73 73 73 73 74 74 75 76 77 77 77 76 76 77 79 80 81 81 80 80 80 80 80 79 79 79 78 78 77 77 77 77 77 77 76 76 76 75 75 74 73 73 72 72 72 71
58 56 56 56 56 56 56 56 55 53 52 54 57 59 61 61 61 61 60 60 60 60 60 60 61 62 62 62 62 62 63 64 65 66 67 68 68 69 69 70 70 71 72 72 73 74 75 76 76 77 76 76 76 77 77 79 80 80 79 79 79 79 79 79 79 79 79 80 79 79 79 79 78 78 78 77 77 76 76 75 75 74 74 73 72 71
58 57 56 56 56 57 58 57 56 55 54 55 56 58 60 61 61 61 60 60 60 60 60 60 61 61 62 62 62 62 63 64 64 65 66 67 67 67 68 68 69 69 70 71 71 72 74 75 75 77 77 77 77 78 78 79 80 81 81 81 81 81 81 81 81 81 81 82 82 82 82 81 80 80 79 78 77 76 76 76 75 74 73 72 72 72
59 59 59 59 59 60 60 58 57 56 56 56 56 58 59 61 62 62 61 60 60 61 61 61 62 63 64 64 65 65 65 66 66 66 67 67 68 68 68 69 69 70 71 71 72 73 74 75 76 77 77 77 78 79 80 80 81 82 82 82 83 83 83 82 82 82 82 82 83 83 83 82 82 81 79 78 76 76 75 75 74 72 71 71 71 71
60 60 61 61 61 62 61 60 59 59 60 60 60 61 61 62 63 63 63 62 62 63 63 64 64 65 66 67 67 67 67 68 68 69 68 69 69 70 71 71 72 72 73 74 74 75 76 77 78 78 79 79 80 81 81 81 82 83 84 84 84 85 85 85 85 85 85 84 84 84 84 84 83 82 81 79 77 76 75 74 73 73 72 71 71 70
63 63 63 63 63 63 63 62 61 61 62 62 63 64 64 65 66 66 66 66 65 66 67 67 68 69 69 70 71 71 71 71 71 71 71 72 72 73 74 74 75 76 76 77 78 79 79 79 80 80 81 81 82 83 84 84 84 85 86 86 86 87 87 88 88 88 88 87 87 87 86 86 85 84 83 81 79 77 76 75 75 74 74 73 72 71
67 66 65 65 66 66 65 64 64 64 64 65 66 67 67 68 68 69 70 70 70 70 71 72 72 73 74 74 74 75 74 74 75 75 75 75 75 76 76 77 77 78 79 80 80 81 81 82 83 83 83 83 83 84 85 85 86 87 87 88 88 88 89 89 89 90 90 89 89 88 88 88 87 86 85 83 81 79 77 76 75 74 74 73 72 71
69 69 68 68 69 68 67 66 68 68 68 69 70 71 71 71 71 72 72 73 73 74 74 75 75 76 76 77 77 77 78 77 77 77 77 77 78 78 79 79 79 80 80 81 82 82 82 83 83 84 84 84 84 84 85 85 85 86 87 87 87 87 88 88 88 88 88 89 89 88 88 88 88 87 86 84 83 82 80 79 79 78 76 73 71 69
Wind_Direction
215 217 220 222 223 224 226 229 231 232 232 233 234 235 235 234 234 234 235 236 237 238 239 240 236 234 242 246 246 246 242 238 239 243 246 246 246 242 233 225 224 231 237 237 239 245 251 257 261 265 267 271 275 278 281 282 284 288 292 296 301 305 308 311 314 315 316 318 321 322 322 323 323 321 315 311 307 306 305 304 303 301 299 298 296 296
216 217 219 222 223 224 226 229 231 233 233 233 234 235 235 234 232 233 234 234 236 236 238 241 237 233 238 244 247 248 242 235 236 240 244 246 245 240 229 224 225 232 239 242 246 252 257 261 263 263 264 268 271 274 277 280 282 284 288 293 299 302 306 312 314 315 316 317 320 321 322 322 322 321 318 314 309 307 306 305 304 303 301 300 299 298
217 219 220 222 224 226 227 229 231 233 234 233 233 234 235 235 234 233 234 235 236 237 238 241 239 233 236 242 246 249 245 236 236 238 241 243 240 234 228 226 229 231 235 241 245 251 256 261 265 265 266 268 270 271 274 277 280 283 286 292 296 299 304 309 312 314 315 316 318 319 320 320 321 320 319 316 311 309 309 307 306 305 304 303 303 302
218 219 222 223 225 227 228 229 231 233 234 233 233 234 235 236 236 235 235 236 237 238 238 241 241 234 236 241 242 247 246 239 238 236 236 238 236 234 232 232 234 234 237 241 245 249 253 258 263 267 271 271 270 271 273 276 278 281 286 290 293 296 300 304 308 309 311 313 315 317 317 317 318 319 319 318 315 314 314 311 309 308 307 306 305 304
219 220 222 224 226 228 230 230 231 232 233 234 233 233 235 236 237 237 237 237 237 238 240 242 242 234 233 240 240 243 245 242 241 238 235 236 235 236 236 237 239 239 243 246 250 253 255 259 263 266 270 271 272 273 273 274 277 280 284 286 290 294 297 301 303 305 307 310 312 314 315 314 315 316 317 318 318 319 319 317 315 313 310 309 308 307
221 222 223 225 226 228 231 232 232 233 233 234 234 234 234 235 236 238 239 239 239 240 241 244 245 236 229 236 238 240 244 244 243 240 238 237 235 235 238 240 243 244 246 249 253 256 258 259 263 266 269 271 273 274 273 272 274 280 283 283 285 289 294 298 300 302 305 307 310 312 313 313 313 315 316 317 319 320 320 320 319 317 315 314 312 310
222 224 225 226 227 228 231 233 234 235 235 235 236 236 237 237 238 238 239 240 241 242 243 245 247 240 226 229 235 238 243 246 245 242 240 239 236 235 237 241 244 245 246 249 252 256 259 260 264 268 270 274 275 274 273 271 273 278 281 282 283 286 290 295 297 299 302 305 307 309 310 311 311 312 312 314 316 318 319 320 320 319 318 317 316 314
224 226 227 228 229 230 231 234 235 236 237 237 238 239 239 239 240 241 241 241 241 242 243 244 248 246 229 221 232 238 242 245 245 244 242 240 239 237 238 242 245 246 247 249 251 254 257 260 265 269 271 274 276 275 274 272 273 276 280 282 283 284 287 291 295 297 299 301 302 303 305 307 307 308 308 309 311 313 316 317 317 317 317 316 316 315
225 227 228 229 230 231 231 233 235 236 237 238 239 240 241 241 242 243 244 244 243 243 243 244 248 250 237 219 227 239 242 245 245 243 242 240 240 238 239 243 246 248 248 249 251 253 255 258 262 266 269 273 275 275 274 273 274 277 279 282 283 282 284 288 292 295 295 295 296 298 300 302 303 304 305 305 306 307 309 311 311 311 312 312 312 311
225 227 229 229 230 230 231 232 234 236 237 238 239 240 242 243 244 245 245 246 247 244 244 245 247 252 247 227 225 237 242 244 244 242 241 240 241 241 241 244 246 249 250 252 253 255 256 258 261 264 268 271 273 274 274 274 276 278 280 281 282 282 282 284 288 291 293 292 292 294 296 297 298 299 301 302 303 304 304 306 306 307 308 308 307 307
227 229 230 231 232 232 232 233 235 237 239 240 241 242 244 245 246 247 247 248 249 246 245 247 247 252 253 236 225 236 240 242 242 241 241 241 242 243 243 245 247 249 252 255 257 258 259 261 262 265 267 269 271 272 272 273 275 277 279 280 280 280 280 282 285 288 290 290 290 290 292 294 295 296 298 299 300 301 301 302 303 304 305 305 304 304
230 231 233 234 235 235 235 236 237 239 241 242 243 244 245 246 247 248 249 250 250 248 247 249 248 250 253 245 232 235 239 241 241 240 242 242 243 245 245 246 248 250 253 256 257 259 261 263 265 267 268 269 270 270 270 272 274 276 277 278 280 280 280 281 283 286 288 289 289 289 289 290 292 294 295 296 297 298 299 299 299 301 302 301 301 300
233 234 234 236 237 237 237 238 239 240 242 243 243 244 245 246 248 249 250 251 252 251 251 252 250 250 253 254 248 242 241 243 242 241 242 243 244 245 246 248 249 251 253 255 256 258 260 263 266 268 269 269 269 270 270 271 273 275 276 278 279 281 282 282 283 285 287 288 287 286 286 288 290 292 293 294 295 296 296 296 296 297 298 298 298 298
237 237 236 237 238 238 239 240 241 242 243 244 245 246 246 247 250 250 251 252 253 254 254 254 253 252 253 256 255 250 246 246 246 246 244 243 244 246 247 249 251 252 253 254 256 258 260 262 264 266 267 268 269 270 271 271 272 274 276 278 279 281 283 284 285 286 286 286 285 284 285 286 288 290 291 292 293 294 295 295 295 294 295 296 297 298
237 237 237 238 239 240 241 241 242 243 243 244 244 245 246 248 251 252 252 253 254 254 254 255 254 254 255 257 258 257 253 250 251 252 250 247 246 247 248 249 251 252 253 255 256 258 259 261 262 263 265 267 269 270 271 272 272 274 275 277 279 280 282 284 285 286 285 284 283 283 284 285 287 289 290 290 290 291 293 293 293 293 293 295 297 297
239 239 238 238 239 239 240 240 241 241 242 243 245 246 248 250 252 253 254 254 254 254 254 255 256 256 256 257 259 260 258 255 253 253 253 253 252 250 250 250 251 253 254 256 257 258 259 260 261 263 264 266 267 269 270 271 272 273 274 276 278 280 281 283 284 284 284 283 283 284 285 287 288 289 289 288 288 289 291 292 292 292 292 294 296 296
242 242 242 241 241 241 241 242 242 243 244 246 247 249 251 252 252 254 255 255 255 255 255 256 258 258 258 258 260 262 262 259 256 254 252 253 255 256 255 255 255 256 256 257 258 259 260 261 263 264 265 266 267 269 270 270 271 272 274 275 277 278 279 280 281 282 282 283 284 285 286 287 288 288 288 288 288 289 290 291 292 292 292 294 295 296
242 243 242 242 242 242 243 244 244 244 246 247 249 250 251 252 252 253 254 255 256 257 257 257 258 258 258 259 260 262 264 263 261 259 256 254 254 256 257 257 258 258 258 259 259 260 261 262 264 265 266 267 267 268 269 270 271 272 273 274 275 276 277 277 279 280 281 283 285 285 286 287 287 288 288 288 288 289 290 291 291 292 293 294 295 296
239 240 241 241 241 241 241 242 243 244 245 247 248 249 249 251 252 252 254 255 257 259 259 259 258 258 258 259 261 262 264 265 264 263 261 258 256 255 256 257 257 258 259 260 260 261 262 263 264 265 266 267 267 268 269 270 271 272 273 274 274 275 276 277 278 279 281 283 284 285 285 286 286 287 287 288 288 289 289 290 291 291 293 294 295 295
240 241 242 242 242 242 243 243 245 246 247 247 248 248 249 251 252 253 254 255 257 259 260 260 259 258 258 259 261 261 262 265 267 267 266 264 261 257 256 256 256 257 258 259 259 260 262 263 265 266 266 266 267 268 270 271 273 274 274 275 275 276 277 278 279 280 281 282 282 283 284 285 286 286 287 287 288 288 289 289 290 291 292 293 293 293
241 242 243 244 243 244 245 246 248 248 248 248 248 248 249 251 252 253 254 254 255 257 258 260 260 260 259 259 260 261 262 262 264 266 267 267 266 263 261 259 258 257 258 258 259 260 261 262 264 265 265 265 266 267 268 270 271 272 273 274 275 275 276 277 278 279 280 280 281 282 283 284 284 285 285 286 286 287 288 289 289 291 291 292 291 291
243 243 243 244 245 246 247 247 247 247 247 247 247 248 249 250 251 251 252 252 252 253 255 257 260 261 260 258 259 260 262 262 262 264 265 265 266 267 266 264 262 260 259 259 259 260 260 261 262 263 264 265 265 266 266 267 268 269 271 272 273 274 275 276 277 277 278 279 280 281 282 282 282 283 284 286 286 287 288 289 291 291 291 291 290 289
244 244 244 244 245 246 246 246 246 246 246 246 247 248 248 249 249 250 251 251 251 251 252 255 259 262 261 259 259 260 261 262 262 263 264 265 266 268 269 269 268 266 264 262 261 260 259 259 260 261 262 263 264 264 265 265 266 267 269 270 272 273 274 275 275 276 277 278 279 280 281 282 283 284 286 287 288 289 290 290 291 291 290 289 288 288
240 241 242 243 244 244 244 245 245 245 246 246 247 248 249 249 250 250 251 252 251 252 254 254 257 262 263 261 260 260 262 263 263 264 265 267 268 269 271 271 271 271 270 268 265 262 260 260 259 259 261 262 262 263 264 265 266 267 269 270 271 272 273 274 275 276 278 279 280 281 283 284 285 286 287 288 289 290 289 289 288 288 288 288 288 288
239 240 241 242 242 242 242 244 245 246 247 248 248 249 249 249 249 250 250 252 252 254 256 256 258 262 264 263 262 261 262 263 265 266 267 269 270 270 270 271 272 273 274 273 271 268 265 264 263 263 263 263 263 264 264 266 267 268 269 271 272 274 275 276 277 278 279 280 281 283 284 284 285 286 287 287 288 287 287 287 288 288 288 288 289 289
239 240 241 242 243 244 245 247 249 251 251 251 250 250 250 250 250 251 251 251 253 256 257 257 259 261 261 262 262 261 261 262 265 266 267 268 268 269 270 272 273 273 273 272 270 269 269 269 268 268 267 267 267 268 268 269 270 271 272 274 275 276 277 278 278 279 280 281 282 283 283 284 285 286 286 286 286 286 286 287 288 289 289 290 290 291
239 240 241 242 244 245 247 248 249 249 249 249 250 250 250 249 249 250 250 251 254 256 255 256 259 259 258 259 261 261 261 262 263 264 265 266 267 269 271 271 271 270 269 270 269 269 270 271 271 271 271 271 272 272 273 273 274 275 276 277 278 278 279 279 280 281 281 282 283 283 284 284 285 285 285 285 285 286 287 288 289 290 290 291 292 292
238 240 241 242 244 244 245 245 246 245 246 247 248 248 248 248 249 249 250 253 256 256 256 258 260 259 257 257 259 261 260 261 262 263 265 266 267 268 268 267 266 267 268 269 270 271 272 273 273 274 275 276 276 276 276 276 276 276 276 277 277 278 279 279 280 281 282 282 283 283 283 283 283 283 284 284 285 286 287 288 289 290 291 292 293 294
238 239 240 241 242 243 244 245 246 247 248 248 248 248 249 249 250 251 253 255 256 256 257 259 258 258 258 257 257 259 259 259 261 263 264 265 267 267 265 263 263 265 267 269 271 272 274 275 276 278 279 279 280 280 280 279 279 279 279 278 278 278 278 279 280 281 281 281 282 281 281 281 282 282 283 284 285 287 288 289 290 291 292 293 294 293
241 241 242 241 243 243 244 245 247 248 249 250 250 249 250 250 252 254 255 255 255 255 257 258 257 258 259 259 258 260 261 259 258 260 262 263 264 264 264 264 264 265 266 268 270 272 274 275 277 278 279 280 281 281 282 282 282 283 283 283 282 282 281 281 281 281 281 281 281 281 281 281 282 283 284 285 286 287 288 289 290 291 292 293 292 291
245 245 245 246 246 246 246 248 249 250 251 252 252 251 251 252 253 254 255 255 255 257 258 259 259 259 259 260 260 260 262 260 257 258 260 261 261 262 264 265 266 267 268 269 270 271 273 274 276 277 278 279 280 281 282 282 283 283 283 284 284 284 283 284 284 283 283 283 282 282 282 282 283 284 285 287 287 288 289 290 290 291 292 291 290 289
248 247 247 247 248 248 248 250 251 251 252 253 252 253 253 254 255 256 257 258 259 260 261 261 260 260 260 261 259 258 259 260 258 257 258 260 262 263 264 265 266 268 269 270 271 272 273 274 275 276 277 278 279 279 280 281 282 282 283 283 283 283 284 284 284 284 284 284 284 283 283 283 283 284 286 287 287 288 289 289 290 290 290 290 290 289
248 248 247 247 248 249 247 248 250 251 251 251 253 255 257 259 260 260 261 262 263 265 265 264 264 263 261 260 259 258 259 260 259 258 259 261 262 263 264 266 267 268 269 270 271 272 273 274 275 275 276 277 277 278 278 279 280 281 282 282 283 283 283 283 284 284 284 284 284 284 283 283 284 285 285 286 286 287 287 288 288 287 288 289 289 289
245 247 248 247 248 248 247 247 247 245 246 250 255 257 258 260 261 262 263 264 264 264 264 264 264 263 262 262 262 261 259 258 258 259 259 260 262 264 265 266 267 268 269 269 270 270 271 272 274 275 275 276 277 277 278 279 279 280 280 281 281 282 282 283 283 284 284 284 284 284 284 284 284 285 285 285 285 285 285 285 285 284 285 286 287 287
239 241 243 245 247 247 246 246 244 244 248 254 256 256 256 258 259 260 261 261 261 260 261 262 264 265 265 265 264 263 262 261 261 261 261 262 263 263 264 265 265 266 267 268 268 269 269 271 272 273 274 275 275 276 277 278 279 279 280 280 280 281 281 281 282 283 283 284 283 283 283 283 284 284 284 284 284 283 283 283 283 283 283 284 285 286
237 238 240 243 244 245 245 244 245 248 253 254 253 254 257 258 258 258 257 257 258 258 258 260 262 264 264 263 263 264 264 264 263 263 263 263 263 262 262 263 263 264 265 266 267 268 269 270 270 271 271 272 272 273 274 276 278 279 280 280 281 281 281 281 282 282 283 283 283 283 283 283 284 284 284 283 283 283 283 283 283 283 283 284 284 286
238 240 241 243 244 244 245 246 247 249 251 251 253 255 256 256 255 253 253 253 254 255 256 258 260 260 260 261 261 262 261 261 260 260 260 260 260 261 261 261 261 262 263 265 266 268 269 270 270 270 270 270 271 271 272 273 276 278 279 279 279 280 280 281 281 281 281 282 282 282 282 282 283 283 284 284 284 283 283 283 283 283 284 285 286 286
240 242 244 246 247 247 247 248 249 248 249 252 254 254 254 253 251 250 251 252 252 254 256 258 258 258 258 258 258 258 258 257 257 257 258 257 258 258 258 259 260 261 263 264 266 268 269 270 271 271 271 271 271 272 272 273 274 276 278 278 279 279 280 281 281 281 281 281 281 281 281 281 281 282 282 283 283 282 282 282 282 283 284 285 285 286
243 244 246 247 247 247 249 250 251 250 250 250 251 250 251 251 250 250 252 252 252 254 256 256 257 257 257 258 257 257 258 257 257 259 259 259 259 260 260 260 261 262 264 265 267 268 269 270 271 272 273 274 274 275 275 276 276 277 278 279 279 280 280 281 281 281 282 282 282 281 281 281 281 281 282 282 281 281 280 280 281 281 282 283 284 285
244 244 245 245 246 248 249 249 251 252 251 250 250 250 250 251 252 252 253 253 253 254 255 255 256 256 256 257 258 258 259 259 259 260 262 262 262 263 264 264 264 265 266 267 268 269 270 271 272 273 274 275 276 276 277 278 278 279 279 280 280 280 280 281 281 281 281 281 281 281 281 282 282 282 282 282 281 281 280 280 279 280 281 281 283 284
245 245 245 246 247 248 249 250 252 253 253 252 253 253 253 254 255 255 255 256 256 256 255 256 257 258 258 258 258 258 259 260 260 261 262 262 263 264 266 266 267 267 268 269 270 271 271 272 273 274 275 276 276 277 277 278 278 279 279 280 280 280 281 281 281 281 281 281 282 282 282 281 281 281 281 281 281 281 281 281 281 280 281 281 282 283
245 246 246 246 248 248 250 251 252 253 253 253 255 255 255 257 259 259 259 260 260 259 259 260 261 261 261 260 261 261 261 262 262 262 262 262 263 264 266 267 268 269 269 270 270 271 271 272 272 273 274 274 275 276 276 277 277 278 278 279 279 279 280 280 280 280 280 280 280 281 281 281 281 282 282 282 282 282 282 282 282 283 283 283 284 284
244 246 247 247 248 250 251 251 252 254 255 255 255 256 257 259 261 263 262 262 261 261 260 260 261 262 263 263 264 265 265 265 266 265 265 265 265 265 265 267 268 268 269 270 270 270 271 271 271 272 273 273 274 274 275 275 276 276 277 277 278 278 278 278 278 278 278 278 279 279 279 280 281 282 282 283 283 283 284 284 284 285 285 286 286 287
243 244 246 248 249 250 252 253 255 258 257 255 254 255 256 257 259 260 260 260 261 261 261 262 263 264 265 265 266 266 267 267 268 268 268 268 268 268 267 267 268 269 269 270 270 270 270 270 271 271 272 273 274 274 274 275 275 275 276 276 276 276 276 277 277 277 277 278 278 278 279 280 280 281 282 283 283 284 284 285 285 286 286 287 287 288
246 246 248 250 250 251 253 255 256 256 255 253 253 253 254 256 257 258 259 261 262 263 264 264 265 266 266 266 267 267 268 268 268 269 269 269 270 270 270 270 271 271 271 272 272 272 272 272 272 272 272 273 275 276 276 276 276 276 276 276 277 277 277 277 277 277 278 278 278 279 279 280 280 281 282 282 283 283 284 284 285 286 286 287 288 289
248 248 248 249 249 250 251 253 254 255 255 255 255 256 257 259 260 261 262 263 265 266 266 267 268 268 268 268 268 268 269 269 269 269 269 270 270 271 272 273 273 274 274 274 275 275 275 275 275 275 275 275 277 278 279 279 279 279 279 279 279 279 279 279 279 279 279 279 280 280 280 280 280 280 281 281 281 281 282 282 283 284 285 286 287 288
247 248 249 249 250 251 252 253 255 257 257 257 257 258 259 261 262 263 264 265 266 267 268 269 269 270 270 270 270 270 270 271 271 271 271 272 272 273 273 274 274 275 275 276 276 276 277 277 277 277 277 277 278 279 279 280 280 280 280 280 280 280 280 280 280 280 280 280 280 280 280 280 280 280 280 280 279 279 279 279 279 280 281 283 284 285
247 249 250 252 253 254 254 255 256 257 258 259 259 260 260 262 263 265 266 266 267 268 269 269 270 270 271 272 272 272 273 273 274 274 275 275 276 276 276 277 277 277 277 278 278 278 278 278 278 278 279 279 278 279 279 279 279 279 280 280 280 280 280 280 280 280 280 279 279 279 279 280 280 280 280 279 279 278 277 277 276 277 278 280 282 283
248 249 251 253 255 256 257 257 258 259 260 261 262 262 262 263 264 265 266 266 267 267 268 269 270 270 271 272 273 273 274 275 275 276 276 276 277 277 277 278 278 278 279 279 279 278 278 278 278 278 278 278 278 278 278 278 278 278 278 278 278 278 278 278 278 278 278 278 278 278 278 278 278 279 279 279 278 278 277 276 276 276 278 280 282 283
250 251 252 254 256 257 259 261 261 261 262 262 263 263 263 264 265 266 267 267 268 268 269 270 270 271 272 273 274 274 275 275 276 276 276 277 277 277 277 277 277 278 278 278 278 278 278 278 278 278 278 278 278 278 278 278 278 278 278 278 278 278 278 277 277 277 277 277 277 277 277 277 277 277 277 277 276 276 275 275 275 277 279 282 283 283
252 253 254 255 256 257 258 260 261 262 262 262 263 263 264 265 266 267 267 268 269 269 269 270 271 272 273 274 275 275 275 276 276 276 276 276 277 277 277 277 277 277 277 277 277 277 277 278 278 279 279 279 279 278 278 278 278 278 278 278 278 278 278 278 278 278 278 277 277 277 277 277 277 277 276 276 275 274 274 274 275 276 279 281 282 283
Height
5826 5828 5830 5832 5834 5835 5837 5838 5838 5840 5842 5843 5844 5846 5848 5850 5852 5853 5853 5855 5856 5857 5858 5859 5861 5863 5863 5863 5864 5865 5866 5868 5868 5868 5869 5869 5870 5871 5871 5872 5872 5872 5872 5873 5873 5873 5873 5873 5873 5873 5873 5873 5872 5872 5872 5872 5872 5871 5871 5870 5869 5869 5868 5867 5866 5866 5865 5864 5864 5863 5862 5861 5860 5859 5858 5857 5856 5855 5854 5854 5853 5852 5851 5850 5849 5848
5823 5826 5828 5829 5830 5832 5834 5835 5836 5838 5839 5841 5842 5843 5845 5847 5849 5850 5851 5852 5853 5854 5855 5856 5858 5861 5861 5861 5861 5862 5864 5866 5866 5866 5867 5867 5868 5869 5870 5870 5870 5871 5871 5871 5871 5872 5872 5871 5871 5871 5871 5870 5870 5870 5869 5869 5869 5869 5869 5868 5867 5867 5866 5865 5864 5864 5863 5862 5862 5861 5860 5859 5858 5857 5856 5855 5854 5853 5852 5851 5850 5849 5848 5847 5846 5845
5821 5823 5824 5825 5827 5829 5831 5832 5834 5835 5836 5838 5839 5841 5842 5844 5846 5847 5848 5850 5851 5852 5853 5853 5855 5859 5860 5859 5860 5860 5862 5864 5864 5865 5865 5865 5866 5867 5868 5868 5869 5869 5869 5870 5870 5870 5870 5869 5869 5868 5868 5868 5868 5867 5867 5867 5867 5867 5867 5866 5866 5865 5864 5863 5862 5862 5861 5860 5860 5859 5858 5857 5856 5855 5854 5853 5852 5851 5850 5849 5848 5847 5846 5845 5844 5842
5819 5820 5821 5823 5825 5827 5828 5830 5831 5832 5834 5835 5837 5838 5839 5841 5843 5844 5846 5847 5848 5849 5850 5850 5853 5857 5858 5857 5858 5858 5859 5861 5862 5863 5863 5863 5864 5864 5865 5866 5866 5867 5867 5868 5868 5868 5868 5867 5866 5866 5866 5866 5866 5865 5865 5865 5865 5865 5864 5864 5863 5863 5862 5861 5860 5860 5859 5858 5858 5857 5856 5855 5854 5853 5852 5851 5850 5849 5848 5847 5846 5844 5843 5842 5841 5840
5815 5816 5818 5820 5822 5823 5825 5827 5828 5830 5831 5832 5834 5835 5836 5838 5840 5841 5843 5844 5845 5846 5847 5848 5850 5854 5855 5855 5856 5856 5857 5858 5859 5861 5861 5861 5862 5862 5863 5863 5863 5864 5865 5865 5866 5865 5865 5865 5864 5864 5864 5864 5863 5863 5863 5863 5863 5862 5862 5862 5861 5860 5860 5859 5858 5857 5857 5856 5855 5855 5854 5853 5852 5851 5850 5849 5848 5847 5846 5845 5843 5842 5841 5839 5838 5837
5811 5813 5815 5817 5819 5821 5822 5824 5826 5827 5828 5829 5831 5832 5834 5835 5837 5838 5840 5841 5842 5843 5845 5846 5846 5850 5853 5853 5854 5854 5855 5856 5856 5858 5859 5859 5859 5860 5860 5860 5860 5862 5862 5863 5863 5863 5863 5862 5862 5862 5861 5861 5861 5861 5861 5861 5860 5860 5860 5859 5859 5858 5857 5857 5856 5855 5854 5853 5853 5852 5852 5851 5850 5849 5848 5847 5846 5845 5843 5842 5841 5839 5838 5836 5835 5834
5809 5810 5812 5814 5816 5818 5819 5821 5823 5824 5825 5826 5828 5829 5831 5832 5833 5835 5837 5838 5839 5840 5842 5843 5843 5847 5851 5851 5851 5852 5852 5853 5854 5855 5856 5856 5857 5857 5857 5857 5858 5859 5859 5860 5860 5860 5860 5860 5859 5859 5859 5859 5859 5859 5858 5858 5858 5857 5857 5857 5856 5856 5855 5854 5853 5852 5851 5851 5850 5849 5849 5848 5847 5846 5845 5844 5843 5842 5841 5840 5838 5836 5835 5834 5832 5830
5806 5808 5809 5811 5813 5815 5817 5818 5820 5821 5822 5823 5825 5826 5827 5829 5830 5832 5834 5835 5836 5837 5839 5840 5841 5843 5847 5849 5849 5850 5850 5850 5851 5852 5853 5853 5854 5854 5854 5854 5854 5855 5856 5856 5857 5857 5857 5857 5857 5857 5857 5856 5856 5856 5856 5855 5855 5854 5854 5853 5853 5853 5852 5851 5850 5850 5849 5848 5847 5846 5846 5845 5844 5843 5842 5841 5840 5839 5838 5837 5835 5834 5832 5831 5829 5827
5803 5804 5806 5808 5810 5812 5814 5815 5816 5818 5819 5820 5822 5823 5824 5826 5827 5829 5830 5831 5833 5834 5836 5838 5839 5838 5842 5847 5847 5847 5848 5848 5849 5849 5849 5850 5850 5850 5851 5851 5851 5851 5852 5853 5853 5854 5854 5854 5854 5854 5854 5853 5853 5853 5852 5852 5851 5851 5850 5850 5850 5849 5849 5848 5847 5847 5846 5845 5844 5844 5843 5842 5841 5840 5839 5838 5837 5836 5835 5834 5833 5831 5829 5828 5826 5824
5799 5801 5802 5804 5806 5808 5810 5811 5813 5814 5815 5817 5819 5820 5821 5823 5824 5825 5827 5828 5829 5831 5833 5835 5836 5835 5837 5844 5845 5844 5846 5846 5845 5846 5846 5846 5846 5847 5847 5847 5847 5848 5848 5849 5849 5850 5851 5851 5851 5851 5850 5850 5849 5849 5849 5848 5848 5847 5846 5846 5846 5845 5845 5845 5844 5844 5843 5842 5841 5841 5840 5839 5838 5837 5836 5835 5834 5833 5832 5831 5829 5828 5826 5824 5822 5820
5796 5797 5799 5801 5803 5805 5806 5808 5809 5810 5812 5814 5815 5817 5818 5819 5821 5822 5823 5825 5825 5827 5830 5832 5834 5832 5832 5839 5843 5843 5843 5843 5842 5843 5843 5843 5843 5843 5844 5844 5844 5844 5844 5845 5846 5846 5846 5847 5847 5847 5847 5846 5846 5845 5845 5844 5844 5843 5842 5842 5841 5841 5842 5842 5841 5840 5839 5839 5838 5837 5836 5835 5834 5833 5833 5832 5831 5829 5828 5827 5825 5824 5822 5820 5818 5816
5792 5794 5796 5798 5799 5801 5803 5804 5805 5807 5808 5810 5811 5813 5815 5816 5817 5818 5820 5821 5822 5824 5827 5828 5831 5830 5828 5835 5841 5840 5840 5839 5839 5840 5840 5840 5840 5840 5840 5840 5840 5840 5841 5842 5842 5842 5842 5842 5842 5843 5842 5842 5842 5842 5841 5841 5840 5839 5838 5837 5837 5837 5838 5838 5837 5837 5836 5835 5834 5834 5832 5831 5830 5830 5829 5828 5827 5826 5824 5823 5821 5820 5818 5816 5814 5812
5788 5791 5793 5794 5796 5798 5800 5801 5802 5803 5804 5806 5808 5809 5811 5812 5813 5815 5816 5817 5819 5821 5823 5824 5827 5827 5827 5831 5835 5836 5836 5836 5836 5837 5837 5837 5837 5837 5837 5836 5836 5837 5838 5838 5838 5838 5838 5838 5838 5838 5838 5837 5837 5837 5837 5837 5836 5835 5834 5833 5833 5832 5833 5833 5833 5832 5832 5831 5830 5829 5828 5827 5826 5826 5825 5823 5822 5821 5820 5819 5817 5815 5813 5811 5809 5807
5784 5786 5789 5791 5792 5794 5796 5797 5798 5800 5801 5802 5804 5805 5807 5808 5809 5811 5813 5814 5816 5817 5818 5820 5822 5824 5826 5828 5829 5831 5833 5833 5833 5834 5834 5834 5833 5833 5832 5833 5833 5834 5834 5834 5835 5835 5834 5834 5834 5833 5833 5833 5833 5833 5832 5832 5831 5831 5830 5829 5829 5828 5828 5828 5828 5828 5827 5827 5825 5824 5824 5823 5822 5821 5820 5819 5818 5816 5815 5814 5812 5810 5808 5806 5804 5803
5779 5781 5785 5787 5788 5790 5792 5793 5794 5796 5796 5797 5799 5801 5803 5805 5806 5807 5808 5810 5812 5813 5813 5816 5818 5820 5823 5824 5824 5825 5829 5830 5830 5829 5829 5830 5829 5828 5829 5829 5830 5830 5830 5831 5831 5830 5830 5830 5829 5829 5828 5828 5828 5828 5827 5827 5827 5826 5826 5825 5825 5824 5824 5823 5822 5822 5822 5821 5820 5819 5819 5818 5818 5817 5816 5814 5813 5811 5810 5809 5807 5805 5803 5802 5800 5798
5774 5777 5780 5782 5783 5785 5787 5788 5789 5790 5791 5793 5795 5797 5799 5801 5801 5802 5803 5806 5808 5808 5809 5812 5814 5817 5820 5820 5819 5821 5824 5826 5826 5824 5824 5824 5824 5824 5825 5825 5826 5826 5826 5826 5826 5826 5825 5825 5825 5825 5824 5824 5823 5823 5822 5822 5822 5822 5821 5821 5821 5820 5819 5818 5817 5816 5816 5815 5815 5815 5814 5813 5812 5811 5810 5809 5807 5806 5805 5803 5802 5800 5798 5797 5795 5792
5770 5773 5775 5777 5779 5781 5781 5782 5784 5786 5787 5789 5792 5794 5796 5797 5796 5797 5799 5801 5802 5803 5806 5808 5810 5814 5816 5816 5816 5816 5818 5821 5820 5819 5820 5820 5820 5820 5820 5821 5821 5821 5821 5821 5821 5821 5820 5820 5820 5820 5820 5819 5819 5818 5817 5817 5817 5817 5817 5817 5816 5815 5814 5813 5812 5811 5810 5809 5809 5809 5808 5807 5807 5805 5804 5802 5801 5800 5799 5798 5796 5795 5793 5791 5788 5786
5765 5766 5768 5771 5773 5775 5776 5777 5779 5781 5783 5785 5788 5791 5791 5790 5791 5793 5794 5796 5797 5798 5801 5805 5807 5809 5811 5812 5813 5812 5813 5814 5814 5813 5815 5816 5816 5815 5816 5816 5816 5816 5816 5816 5816 5815 5815 5814 5814 5814 5814 5814 5813 5813 5812 5812 5812 5812 5812 5812 5811 5810 5808 5807 5806 5806 5804 5804 5804 5803 5802 5801 5800 5799 5797 5796 5795 5794 5793 5792 5790 5789 5787 5785 5782 5779
5758 5759 5761 5764 5766 5768 5770 5771 5773 5776 5779 5781 5783 5785 5784 5784 5785 5788 5789 5790 5792 5793 5796 5800 5802 5804 5807 5808 5809 5809 5809 5808 5807 5807 5809 5810 5811 5811 5811 5810 5810 5810 5810 5810 5810 5809 5808 5809 5809 5808 5808 5808 5807 5806 5806 5806 5807 5807 5806 5806 5805 5803 5802 5801 5801 5800 5799 5798 5798 5797 5796 5795 5793 5792 5791 5790 5789 5788 5787 5786 5785 5783 5782 5779 5776 5773
5753 5754 5755 5758 5761 5761 5763 5765 5769 5772 5774 5776 5777 5778 5779 5779 5780 5782 5783 5785 5787 5788 5790 5794 5796 5799 5803 5805 5804 5804 5805 5804 5801 5802 5802 5803 5804 5805 5805 5805 5805 5805 5805 5804 5803 5803 5803 5803 5803 5802 5801 5801 5800 5800 5800 5800 5800 5800 5799 5799 5798 5797 5796 5795 5794 5794 5793 5792 5791 5790 5789 5788 5787 5786 5784 5783 5782 5782 5780 5779 5779 5778 5776 5773 5770 5767
5746 5748 5750 5753 5754 5755 5758 5762 5765 5767 5768 5769 5771 5772 5774 5775 5775 5776 5778 5780 5782 5783 5784 5786 5788 5794 5799 5800 5799 5799 5800 5800 5798 5796 5796 5795 5795 5796 5798 5799 5799 5799 5799 5798 5798 5797 5797 5797 5796 5795 5794 5794 5794 5795 5795 5795 5794 5793 5792 5791 5791 5790 5790 5789 5788 5788 5787 5785 5784 5783 5783 5782 5781 5779 5778 5777 5776 5775 5774 5773 5772 5771 5770 5767 5764 5761
5740 5742 5744 5746 5748 5751 5755 5757 5758 5760 5761 5762 5763 5766 5768 5769 5769 5769 5770 5773 5775 5776 5778 5779 5781 5788 5793 5795 5795 5794 5794 5794 5793 5792 5790 5789 5789 5789 5790 5790 5791 5793 5793 5792 5792 5791 5791 5790 5789 5788 5788 5788 5789 5789 5789 5789 5788 5787 5786 5785 5785 5785 5784 5783 5782 5781 5780 5779 5778 5777 5776 5775 5774 5773 5772 5770 5770 5769 5768 5766 5765 5764 5763 5761 5758 5754
5734 5735 5738 5740 5743 5747 5748 5748 5750 5752 5754 5755 5756 5760 5762 5761 5761 5761 5762 5766 5768 5769 5773 5774 5775 5781 5787 5790 5791 5789 5788 5788 5787 5786 5784 5784 5784 5783 5782 5782 5782 5784 5785 5785 5785 5784 5783 5783 5783 5782 5782 5783 5783 5782 5782 5782 5782 5781 5781 5780 5780 5780 5779 5777 5776 5775 5774 5773 5772 5771 5770 5768 5767 5767 5766 5764 5762 5762 5761 5759 5758 5756 5755 5753 5751 5748
5725 5726 5730 5733 5736 5739 5738 5740 5743 5745 5746 5748 5750 5753 5754 5754 5755 5755 5756 5759 5759 5762 5768 5768 5769 5776 5780 5784 5785 5784 5783 5782 5780 5779 5778 5778 5778 5777 5775 5775 5774 5774 5774 5774 5774 5775 5775 5775 5776 5777 5777 5777 5776 5776 5776 5776 5776 5776 5776 5775 5774 5774 5773 5771 5770 5769 5768 5767 5766 5765 5763 5762 5761 5760 5759 5758 5756 5754 5752 5751 5750 5748 5747 5745 5743 5740
5718 5719 5723 5725 5727 5729 5730 5732 5735 5737 5739 5742 5744 5747 5747 5748 5749 5747 5749 5751 5751 5757 5763 5759 5762 5773 5776 5776 5779 5779 5777 5775 5773 5773 5773 5772 5771 5769 5768 5767 5767 5766 5765 5764 5763 5764 5765 5767 5768 5770 5770 5770 5769 5769 5770 5771 5771 5771 5770 5769 5769 5768 5766 5764 5763 5763 5762 5761 5760 5759 5757 5755 5754 5753 5752 5751 5749 5746 5744 5742 5742 5740 5739 5737 5735 5732
5711 5713 5716 5718 5718 5721 5724 5727 5732 5735 5735 5736 5739 5741 5742 5742 5742 5742 5744 5743 5744 5753 5756 5750 5756 5769 5771 5769 5770 5771 5771 5770 5768 5767 5766 5765 5763 5761 5761 5760 5759 5758 5756 5755 5754 5754 5756 5758 5760 5761 5762 5762 5762 5763 5763 5764 5764 5764 5764 5764 5763 5761 5760 5757 5756 5756 5756 5755 5754 5752 5750 5748 5747 5746 5745 5743 5741 5738 5736 5735 5734 5732 5730 5728 5726 5724
5705 5707 5709 5711 5712 5716 5720 5723 5726 5728 5727 5728 5731 5734 5734 5734 5735 5736 5735 5735 5741 5747 5745 5744 5752 5760 5764 5764 5761 5762 5764 5764 5763 5760 5759 5758 5757 5755 5754 5752 5750 5749 5747 5745 5745 5746 5748 5751 5751 5752 5753 5754 5755 5755 5756 5757 5758 5758 5758 5757 5755 5754 5752 5750 5749 5750 5749 5747 5747 5745 5743 5741 5739 5737 5736 5734 5732 5730 5728 5727 5725 5723 5721 5720 5718 5716
5700 5701 5703 5706 5708 5710 5713 5714 5716 5717 5718 5720 5723 5724 5724 5726 5727 5727 5726 5731 5738 5736 5733 5742 5748 5747 5755 5761 5755 5752 5757 5758 5755 5753 5751 5750 5749 5746 5745 5743 5743 5743 5740 5737 5736 5738 5741 5743 5743 5743 5744 5745 5745 5747 5748 5749 5750 5750 5750 5750 5748 5746 5745 5743 5742 5742 5741 5739 5739 5737 5735 5733 5731 5729 5727 5726 5724 5722 5720 5718 5716 5715 5713 5711 5710 5709
5693 5694 5697 5700 5701 5703 5706 5707 5708 5711 5711 5713 5715 5716 5717 5719 5719 5720 5723 5729 5731 5724 5726 5739 5739 5734 5745 5754 5748 5745 5750 5751 5749 5746 5744 5740 5736 5734 5735 5737 5739 5737 5734 5732 5731 5733 5734 5734 5734 5734 5734 5734 5735 5736 5737 5738 5739 5740 5740 5741 5740 5738 5737 5735 5735 5734 5732 5731 5730 5728 5726 5724 5722 5720 5719 5717 5716 5714 5712 5710 5708 5707 5705 5704 5703 5701
5687 5690 5692 5694 5695 5697 5699 5701 5703 5705 5704 5705 5707 5708 5710 5712 5714 5716 5719 5721 5720 5716 5721 5729 5727 5727 5738 5745 5741 5739 5741 5743 5743 5740 5736 5730 5725 5725 5728 5731 5732 5731 5729 5728 5728 5728 5728 5727 5727 5727 5726 5726 5725 5726 5726 5727 5728 5728 5729 5729 5729 5728 5727 5727 5727 5726 5724 5724 5722 5720 5718 5716 5714 5713 5711 5710 5708 5706 5705 5703 5701 5700 5698 5697 5695 5693
5683 5685 5686 5689 5690 5691 5694 5697 5698 5697 5696 5697 5698 5700 5704 5708 5709 5710 5711 5712 5710 5710 5716 5719 5717 5723 5733 5735 5735 5734 5731 5732 5735 5733 5727 5721 5719 5722 5724 5723 5724 5725 5723 5722 5722 5722 5722 5721 5721 5721 5720 5719 5719 5718 5718 5718 5719 5719 5719 5719 5718 5717 5717 5717 5717 5716 5716 5715 5713 5711 5710 5708 5706 5705 5704 5702 5700 5699 5697 5695 5694 5693 5691 5689 5688 5686
5677 5678 5680 5683 5681 5684 5691 5691 5688 5689 5689 5687 5689 5694 5700 5702 5703 5704 5704 5704 5704 5706 5709 5709 5708 5718 5727 5725 5725 5728 5724 5722 5725 5724 5718 5716 5716 5719 5719 5717 5718 5718 5716 5715 5715 5715 5715 5715 5715 5714 5713 5713 5712 5712 5711 5711 5712 5712 5711 5711 5710 5709 5708 5708 5708 5707 5707 5706 5704 5703 5701 5700 5699 5698 5697 5695 5693 5691 5689 5688 5686 5685 5683 5682 5680 5678
5669 5670 5674 5676 5672 5677 5685 5683 5681 5683 5677 5675 5685 5694 5696 5696 5696 5696 5695 5697 5700 5700 5699 5699 5702 5711 5717 5715 5716 5721 5719 5714 5714 5714 5714 5713 5712 5712 5712 5712 5712 5711 5710 5709 5709 5708 5707 5707 5707 5707 5706 5706 5705 5705 5704 5704 5705 5705 5704 5703 5702 5701 5700 5700 5699 5699 5699 5698 5696 5695 5693 5692 5692 5691 5689 5687 5686 5684 5682 5681 5679 5677 5675 5674 5672 5671
5662 5664 5667 5668 5666 5669 5674 5674 5674 5670 5664 5672 5688 5693 5690 5688 5688 5687 5687 5690 5693 5690 5688 5689 5694 5701 5705 5707 5708 5710 5710 5708 5705 5706 5708 5708 5706 5706 5707 5706 5705 5704 5703 5702 5702 5702 5701 5701 5700 5699 5699 5698 5697 5697 5697 5697 5697 5698 5697 5696 5695 5694 5692 5692 5692 5691 5690 5689 5688 5686 5685 5684 5684 5683 5682 5680 5678 5677 5676 5674 5672 5670 5668 5666 5665 5664
5657 5659 5659 5660 5660 5662 5665 5665 5660 5655 5661 5677 5686 5684 5683 5683 5681 5679 5679 5682 5683 5680 5679 5681 5685 5692 5697 5699 5699 5698 5700 5700 5698 5698 5701 5701 5700 5700 5700 5699 5698 5697 5696 5695 5695 5695 5695 5695 5694 5693 5692 5691 5690 5690 5689 5689 5689 5690 5690 5688 5687 5686 5685 5684 5684 5683 5681 5680 5680 5678 5677 5677 5676 5675 5673 5672 5670 5669 5668 5666 5664 5662 5660 5659 5658 5656
5651 5652 5652 5653 5653 5654 5655 5653 5649 5651 5663 5674 5676 5676 5678 5677 5675 5672 5670 5673 5675 5675 5674 5675 5679 5685 5687 5687 5689 5690 5692 5692 5691 5691 5693 5693 5693 5693 5692 5692 5692 5691 5689 5689 5688 5688 5687 5688 5687 5686 5685 5684 5683 5682 5682 5682 5682 5682 5682 5681 5679 5678 5677 5677 5677 5675 5673 5672 5671 5670 5669 5668 5668 5667 5665 5663 5662 5661 5659 5657 5656 5654 5652 5651 5650 5648
5644 5644 5645 5645 5645 5646 5646 5645 5646 5649 5655 5664 5669 5672 5673 5671 5667 5663 5660 5665 5670 5669 5668 5670 5673 5677 5678 5679 5681 5683 5684 5684 5684 5683 5685 5685 5684 5685 5685 5685 5685 5684 5683 5682 5682 5681 5679 5679 5679 5679 5678 5677 5676 5675 5675 5675 5675 5675 5675 5674 5672 5670 5670 5669 5668 5666 5665 5665 5664 5662 5660 5659 5658 5658 5656 5655 5653 5652 5650 5648 5647 5645 5643 5642 5641 5640
5636 5636 5638 5637 5636 5639 5639 5638 5640 5639 5645 5660 5667 5666 5666 5664 5658 5654 5652 5656 5663 5664 5664 5666 5667 5668 5670 5671 5673 5675 5676 5676 5677 5676 5677 5679 5678 5677 5678 5678 5678 5678 5677 5675 5675 5674 5672 5671 5671 5670 5670 5670 5668 5667 5667 5668 5668 5667 5667 5666 5664 5663 5662 5660 5658 5657 5657 5657 5655 5653 5652 5651 5649 5648 5647 5646 5644 5643 5641 5639 5638 5636 5634 5632 5631 5630
5628 5629 5631 5629 5627 5631 5631 5630 5630 5630 5640 5657 5659 5657 5659 5654 5647 5647 5644 5647 5659 5663 5660 5660 5660 5660 5662 5662 5665 5667 5667 5668 5671 5669 5669 5672 5672 5670 5671 5672 5671 5671 5670 5668 5667 5667 5666 5665 5664 5663 5661 5660 5660 5659 5658 5658 5659 5658 5657 5656 5654 5653 5652 5650 5649 5648 5647 5646 5645 5643 5642 5641 5639 5638 5637 5635 5634 5633 5631 5630 5628 5626 5624 5622 5621 5619
5618 5620 5621 5619 5620 5624 5624 5622 5622 5624 5637 5650 5651 5651 5652 5643 5637 5638 5634 5640 5655 5658 5652 5651 5650 5650 5653 5654 5656 5659 5658 5659 5663 5662 5661 5664 5665 5662 5662 5664 5663 5663 5663 5661 5660 5660 5660 5659 5658 5656 5654 5651 5650 5650 5649 5649 5649 5648 5647 5646 5644 5643 5641 5640 5639 5637 5636 5635 5634 5632 5631 5629 5628 5626 5625 5623 5622 5621 5619 5618 5617 5615 5613 5611 5609 5608
5609 5611 5612 5612 5614 5617 5616 5615 5615 5619 5632 5642 5642 5642 5642 5631 5624 5626 5629 5638 5647 5645 5642 5642 5640 5641 5646 5646 5647 5650 5649 5650 5653 5653 5653 5656 5657 5655 5654 5654 5654 5654 5654 5654 5654 5653 5652 5652 5650 5648 5646 5642 5640 5640 5639 5639 5639 5638 5637 5635 5634 5632 5631 5630 5628 5626 5625 5624 5622 5620 5619 5617 5616 5614 5613 5611 5609 5608 5607 5605 5604 5603 5601 5599 5598 5596
5601 5603 5603 5605 5607 5609 5609 5609 5607 5611 5626 5636 5633 5631 5629 5619 5612 5619 5627 5631 5632 5632 5633 5632 5629 5632 5637 5636 5637 5639 5639 5640 5643 5644 5645 5646 5647 5647 5645 5644 5644 5644 5644 5644 5644 5643 5643 5644 5642 5640 5638 5634 5631 5630 5629 5629 5629 5628 5627 5625 5623 5622 5621 5620 5617 5616 5615 5613 5611 5609 5607 5605 5604 5602 5601 5599 5597 5596 5594 5593 5591 5590 5589 5587 5586 5584
5595 5595 5594 5598 5602 5602 5601 5600 5598 5605 5621 5629 5624 5621 5618 5610 5608 5614 5619 5618 5619 5621 5623 5621 5621 5623 5625 5626 5629 5629 5629 5631 5631 5633 5635 5636 5636 5638 5637 5635 5634 5634 5633 5633 5633 5632 5632 5633 5632 5630 5628 5625 5622 5620 5620 5619 5619 5619 5617 5614 5613 5612 5611 5609 5607 5606 5604 5602 5601 5599 5597 5595 5593 5591 5589 5588 5586 5584 5583 5581 5580 5578 5577 5576 5574 5573
5586 5587 5588 5592 5596 5594 5592 5593 5596 5603 5614 5616 5613 5611 5607 5602 5603 5606 5606 5607 5610 5611 5612 5612 5613 5614 5616 5618 5619 5619 5620 5621 5621 5622 5624 5624 5624 5625 5626 5625 5624 5623 5622 5622 5621 5621 5621 5622 5622 5621 5618 5615 5612 5610 5609 5608 5608 5609 5607 5604 5602 5602 5601 5599 5597 5596 5594 5592 5591 5589 5587 5586 5584 5582 5580 5578 5576 5574 5573 5571 5569 5568 5566 5565 5564 5563
5580 5583 5585 5587 5588 5587 5587 5589 5593 5597 5601 5603 5603 5601 5597 5595 5596 5597 5597 5600 5602 5603 5605 5605 5605 5606 5608 5608 5609 5610 5611 5611 5612 5612 5613 5613 5614 5614 5613 5614 5613 5612 5612 5611 5609 5609 5610 5610 5611 5610 5609 5607 5602 5599 5598 5597 5596 5597 5596 5594 5591 5591 5590 5589 5587 5586 5584 5582 5581 5579 5578 5576 5574 5572 5571 5569 5567 5565 5563 5561 5560 5558 5557 5555 5554 5553
5574 5577 5578 5578 5579 5579 5579 5582 5585 5589 5592 5593 5594 5592 5589 5588 5588 5589 5591 5594 5595 5595 5596 5596 5596 5597 5598 5598 5599 5601 5601 5601 5603 5604 5603 5604 5605 5604 5603 5604 5603 5602 5602 5601 5599 5598 5598 5598 5598 5597 5598 5597 5593 5588 5587 5587 5585 5584 5584 5583 5580 5579 5579 5578 5576 5575 5573 5572 5570 5569 5567 5566 5564 5562 5561 5559 5557 5556 5554 5552 5550 5549 5547 5546 5544 5543
5567 5568 5569 5569 5570 5571 5573 5577 5581 5582 5583 5584 5585 5584 5583 5581 5580 5581 5584 5587 5587 5587 5587 5587 5587 5586 5586 5587 5589 5591 5591 5591 5592 5593 5594 5595 5595 5594 5594 5594 5594 5593 5592 5591 5590 5589 5588 5587 5587 5586 5585 5586 5583 5578 5576 5576 5574 5571 5571 5571 5569 5567 5566 5565 5564 5563 5562 5560 5558 5557 5555 5554 5552 5551 5550 5549 5547 5546 5544 5542 5541 5539 5538 5537 5535 5534
5560 5561 5560 5561 5563 5565 5567 5571 5574 5573 5573 5575 5575 5574 5575 5574 5573 5573 5575 5578 5579 5579 5578 5578 5577 5576 5576 5577 5578 5579 5581 5581 5580 5582 5584 5584 5583 5583 5583 5582 5583 5583 5581 5580 5579 5578 5577 5576 5575 5574 5573 5573 5571 5568 5566 5566 5564 5561 5559 5558 5557 5554 5553 5552 5551 5550 5549 5547 5546 5545 5543 5542 5540 5539 5538 5537 5536 5535 5533 5532 5531 5529 5528 5527 5526 5525
5552 5553 5554 5556 5557 5557 5559 5563 5565 5566 5566 5566 5565 5565 5566 5566 5566 5565 5566 5568 5570 5570 5569 5569 5568 5567 5567 5567 5568 5570 5571 5571 5571 5572 5573 5574 5573 5572 5572 5572 5571 5571 5570 5568 5566 5565 5565 5564 5563 5562 5562 5561 5559 5556 5555 5554 5552 5549 5547 5546 5544 5542 5541 5539 5538 5536 5535 5534 5533 5532 5531 5530 5528 5527 5526 5526 5525 5524 5522 5521 5520 5519 5518 5517 5516 5515
5544 5545 5549 5551 5549 5549 5553 5556 5556 5557 5557 5556 5554 5555 5556 5557 5557 5557 5557 5558 5559 5560 5560 5560 5559 5558 5558 5558 5559 5560 5560 5561 5562 5562 5562 5563 5562 5561 5561 5561 5560 5560 5559 5557 5555 5554 5553 5551 5550 5549 5549 5549 5547 5545 5543 5542 5540 5537 5535 5533 5531 5530 5528 5526 5525 5523 5522 5521 5520 5519 5518 5517 5516 5515 5515 5514 5513 5512 5512 5511 5510 5509 5508 5507 5507 5506
5538 5539 5542 5542 5541 5544 5548 5548 5545 5545 5547 5545 5543 5545 5547 5548 5548 5548 5547 5548 5548 5549 5550 5550 5550 5549 5548 5548 5548 5549 5549 5550 5550 5550 5551 5552 5551 5549 5549 5549 5548 5548 5547 5545 5544 5542 5541 5540 5538 5536 5536 5536 5535 5533 5531 5530 5528 5525 5522 5520 5518 5517 5515 5514 5512 5511 5509 5508 5507 5506 5505 5504 5502 5502 5501 5501 5501 5501 5500 5500 5499 5498 5498 5498 5497 5497